DW7394 Weather Reports


time (UTC)temp
F
wind
direction
speed
knots
gust
knots
rain 1hr
in
rain 24hr
in
rain mn
in
humidity
%
barometer
mb
20260506091514 44 325 2.6 7.0 0.04 1.36 0.26 90 1007.7
20260506091007 45 333 3.5 7.8 0.05 1.36 0.26 90 1007.5
20260506090505 45 326 3.5 11.3 0.05 1.35 0.25 90 1007.4
20260506090010 45 329 4.3 11.3 0.06 1.35 0.25 90 1007.2
20260506085508 45 315 4.3 8.7 0.06 1.35 0.25 90 1007.3
20260506085003 45 321 1.7 6.1 0.08 1.35 0.25 90 1007.1
20260506084503 45 322 3.5 6.1 0.07 1.34 0.24 90 1007.0
20260506084003 45 15 1.7 7.8 0.07 1.34 0.24 90 1006.9
20260506083503 45 27 3.5 7.8 0.07 1.34 0.24 90 1006.9
20260506083001 45 339 2.6 5.2 0.08 1.34 0.24 90 1007.0
20260506082502 45 34 3.5 7.0 0.08 1.33 0.23 90 1007.0
20260506082001 45 326 3.5 7.0 0.08 1.33 0.23 90 1007.2
20260506081500 45 344 3.5 7.0 0.08 1.32 0.22 90 1007.3
20260506081100 45 8 2.6 7.0 0.08 1.31 0.21 90 1007.4
20260506080600 45 15 2.6 5.2 0.07 1.30 0.20 90 1007.4
20260506073158 45 295 2.6 7.8 0.04 1.26 0.16 90 1007.1
20260506072555 45 356 3.5 7.8 0.03 1.25 0.15 90 1007.0
20260506072055 45 6 3.5 7.8 0.03 1.25 0.15 90 1007.0
20260506071555 45 290 3.5 6.1 0.03 1.24 0.14 90 1007.0
20260506071054 45 349 3.5 6.1 0.02 1.23 0.13 90 1006.9
20260506070553 45 3 1.7 5.2 0.02 1.23 0.13 90 1006.9
20260506062049 45 333 1.7 6.1 0.05 1.22 0.12 90 1007.2
20260506061557 45 348 1.7 5.2 0.04 1.21 0.11 90 1007.0
20260506061047 45 350 2.6 5.2 0.05 1.21 0.11 90 1007.0
20260506060546 45 356 1.7 4.3 0.06 1.21 0.11 90 1007.1
20260506051043 45 84 1.7 4.3 0.05 1.15 0.06 90 1007.2
20260506050538 45 356 1.7 3.5 0.04 1.14 0.05 90 1007.5
20260506045036 45 32 3.5 6.1 0.04 1.12 0.03 89 1007.5
20260506044544 46 356 3.5 7.0 0.04 1.12 0.03 90 1007.6
20260506044033 46 8 2.6 7.8 0.05 1.12 0.03 90 1007.6
20260506043532 46 6 3.5 8.7 0.06 1.12 0.03 89 1007.6
20260506043039 46 345 2.6 8.7 0.06 1.12 0.02 90 1007.7
20260506042531 46 356 3.5 7.8 0.07 1.12 0.02 90 1007.7
20260506042031 46 8 4.3 7.8 0.07 1.11 0.01 90 1007.8
20260506041534 46 346 3.5 7.0 0.07 1.11 0.01 90 1007.8
20260506041029 47 311 3.5 7.8 0.08 1.11 0.01 90 1007.8
20260506040527 47 356 3.5 7.8 0.09 1.11 0.01 89 1007.8
20260506040026 47 321 2.6 7.8 0.09 1.10 0.00 89 1007.9
20260506035527 47 13 3.5 9.6 0.09 1.09 1.09 90 1008.0
20260506035026 47 339 3.5 9.6 0.10 1.09 1.09 90 1008.1
20260506034527 47 335 1.7 6.1 0.12 1.09 1.09 90 1008.1
20260506034124 47 318 2.6 4.3 0.12 1.08 1.08 89 1008.1
20260506033523 47 309 1.7 6.1 0.13 1.07 1.07 89 1008.1
20260506033022 47 301 2.6 6.1 0.13 1.06 1.06 89 1008.1
20260506032522 47 318 2.6 6.1 0.13 1.05 1.05 89 1008.1
20260506032021 47 13 3.5 6.1 0.13 1.04 1.04 90 1008.1
20260506031521 48 23 1.7 4.3 0.15 1.04 1.04 90 1008.2
20260506031021 48 301 1.7 5.2 0.14 1.03 1.03 90 1008.3
20260506030521 48 41 1.7 6.1 0.15 1.02 1.02 89 1008.3
20260506030022 48 1 1.7 5.2 0.14 1.01 1.01 89 1008.2
20260506025521 48 326 2.6 5.2 0.15 1.00 1.00 89 1008.2
20260506025019 48 330 2.6 6.1 0.15 0.99 0.99 89 1008.3
20260506024536 48 4 2.6 6.1 0.14 0.97 0.97 89 1008.1
20260506024118 48 309 0.9 6.1 0.14 0.96 0.96 89 1008.0
20260506023520 48 15 3.5 6.1 0.13 0.94 0.94 89 1007.7
20260506023016 48 335 1.7 4.3 0.14 0.93 0.93 89 1007.7
20260506022518 48 37 1.7 4.3 0.13 0.92 0.92 89 1007.8
20260506022015 48 326 1.7 6.1 0.12 0.91 0.91 89 1007.7
20260506021515 48 339 2.6 6.1 0.10 0.89 0.89 89 1007.6
20260506021017 48 321 1.7 5.2 0.09 0.88 0.88 89 1007.6
20260506020514 48 1 2.6 6.1 0.09 0.87 0.87 89 1007.5
20260506020014 48 6 2.6 6.1 0.09 0.87 0.87 89 1007.4
20260506015515 48 23 2.6 5.2 0.07 0.85 0.85 89 1007.4
20260506015016 48 4 2.6 4.3 0.07 0.84 0.84 89 1007.5
20260506014514 48 356 1.7 5.2 0.07 0.83 0.83 89 1007.6
20260506014017 48 335 1.7 5.2 0.07 0.82 0.82 89 1007.6
20260506013514 48 27 1.7 4.3 0.09 0.81 0.81 89 1007.6
20260506013015 48 3 2.6 4.3 0.08 0.79 0.79 89 1007.5
20260506012514 48 356 1.7 4.3 0.10 0.79 0.79 89 1007.4
20260506012016 48 4 1.7 4.3 0.10 0.79 0.79 89 1007.5
20260506011513 48 41 0.9 3.5 0.11 0.79 0.79 89 1007.3
20260506011015 48 15 1.7 7.0 0.11 0.79 0.79 89 1007.3
20260506010512 48 326 1.7 7.0 0.10 0.78 0.78 89 1007.2
20260506010012 48 356 1.7 5.2 0.10 0.78 0.78 89 1007.2
20260506005511 48 84 0.9 4.3 0.10 0.78 0.78 89 1007.1
20260506005112 48 27 2.6 5.2 0.09 0.77 0.77 89 1007.1
20260506004510 48 337 2.6 5.2 0.08 0.76 0.76 89 1007.3
20260506004010 48 11 1.7 4.3 0.07 0.75 0.75 89 1007.1
20260506003510 48 16 1.7 4.3 0.04 0.72 0.72 89 1007.0
20260506003010 48 18 1.7 3.5 0.04 0.71 0.71 89 1006.8
20260506002511 48 34 0.9 3.5 0.02 0.69 0.69 88 1006.8
20260506002009 48 8 1.7 3.5 0.02 0.69 0.69 88 1006.8
20260506001509 48 48 0.9 3.5 0.02 0.68 0.68 88 1006.9
20260506001009 48 41 0.9 4.3 0.03 0.68 0.68 88 1006.9
20260506000508 48 15 1.7 4.3 0.04 0.68 0.68 88 1006.9
20260506000008 48 18 0.9 4.3 0.05 0.68 0.68 88 1006.8
20260505235506 48 41 1.7 4.3 0.07 0.68 0.68 88 1006.7
20260505235006 48 348 0.9 4.3 0.11 0.68 0.68 88 1006.7
20260505234506 48 335 1.7 6.1 0.13 0.68 0.68 88 1006.7
20260505234006 48 44 2.6 7.0 0.13 0.68 0.68 88 1006.7
20260505233506 48 6 3.5 7.0 0.13 0.68 0.68 88 1006.8
20260505233106 48 1 3.5 7.0 0.12 0.67 0.67 88 1007.1
20260505232503 48 325 3.5 9.6 0.14 0.67 0.67 88 1007.1
20260505232003 48 10 5.2 9.6 0.15 0.67 0.67 88 1007.1
20260505231502 48 1 3.5 7.8 0.14 0.66 0.66 88 1007.2
20260505231003 48 356 3.5 7.0 0.14 0.65 0.65 87 1006.9
20260505230603 48 335 1.7 7.0 0.16 0.64 0.64 87 1007.1
20260505230059 48 359 2.6 6.1 0.16 0.63 0.63 87 1007.2
20260505225559 49 337 3.5 7.0 0.15 0.62 0.61 87 1007.3
20260505225057 49 291 3.5 7.0 0.13 0.59 0.57 87 1007.6
20260505224557 49 6 3.5 10.4 0.11 0.56 0.55 87 1006.9
20260505224056 49 336 4.3 11.3 0.12 0.56 0.55 87 1006.9
20260505223554 49 1 2.6 11.3 0.14 0.56 0.55 87 1006.9
20260505223103 50 10 6.1 10.4 0.14 0.55 0.54 86 1006.9
20260505222551 50 23 4.3 10.4 0.14 0.54 0.53 87 1007.0
20260505222051 50 20 3.5 7.8 0.14 0.53 0.52 86 1006.9
20260505221557 51 74 2.6 8.7 0.14 0.53 0.52 86 1006.8
20260505221049 51 333 4.3 8.7 0.16 0.52 0.51 86 1006.8
20260505220547 51 356 4.3 8.7 0.19 0.49 0.48 86 1006.9
20260505220051 51 339 2.6 7.8 0.26 0.48 0.47 86 1006.8
20260505215546 51 34 2.6 7.8 0.26 0.47 0.46 86 1006.7
20260505215046 51 344 2.6 6.1 0.31 0.46 0.45 86 1006.8
20260505214603 51 23 2.6 6.1 0.33 0.45 0.44 85 1006.6
20260505214044 52 345 1.7 10.4 0.32 0.44 0.43 85 1006.8
20260505213544 52 356 4.3 11.3 0.30 0.41 0.40 85 1006.6
20260505213041 52 3 2.6 13.0 0.31 0.41 0.40 85 1006.6
20260505212540 53 4 4.3 13.0 0.31 0.40 0.39 84 1006.6
20260505212039 54 20 6.1 12.2 0.31 0.39 0.38 84 1006.7
20260505211537 56 343 7.0 12.2 0.32 0.39 0.38 84 1006.6
20260505211036 57 356 1.7 13.0 0.28 0.35 0.34 86 1006.6
20260505210534 57 264 2.6 13.0 0.24 0.30 0.28 85 1006.4
20260505210036 57 226 2.6 7.8 0.16 0.22 0.21 85 1006.3
20260505205534 57 240 1.7 7.8 0.14 0.20 0.19 85 1006.2
20260505205033 57 250 2.6 7.8 0.10 0.15 0.14 85 1006.5
20260505204535 57 248 0.0 5.2 0.08 0.12 0.11 84 1006.2
20260505204032 57 41 0.9 5.2 0.09 0.12 0.11 84 1006.3
20260505203532 57 326 0.0 4.3 0.09 0.11 0.10 84 1006.3
20260505203033 58 316 0.9 4.3 0.07 0.09 0.08 83 1006.4
20260505202530 58 214 0.0 6.1 0.07 0.09 0.08 83 1006.2
20260505202102 58 41 1.7 6.1 0.06 0.08 0.07 83 1006.3
20260505201559 58 264 0.9 5.2 0.05 0.07 0.06 82 1006.4
20260505201058 58 231 1.7 5.2 0.04 0.06 0.05 82 1006.3
20260505200557 58 267 2.6 11.3 0.05 0.06 0.05 81 1006.3
20260505200105 59 218 0.9 11.3 0.05 0.06 0.05 81 1006.3
20260505195553 59 119 0.9 3.5 0.05 0.06 0.05 80 1006.4
20260505195052 59 326 0.9 5.2 0.04 0.05 0.04 79 1006.4
20260505194554 60 303 0.9 6.1 0.03 0.04 0.03 78 1006.4
20260505194051 60 239 2.6 7.0 0.02 0.03 0.02 77 1006.4
20260505193550 61 173 1.7 7.0 0.01 0.02 0.01 76 1006.4
20260505193051 61 309 0.9 8.7 0.01 0.02 0.01 76 1006.5
20260505192549 61 254 3.5 8.7 0.01 0.02 0.01 75 1006.3
20260505192051 62 229 0.9 8.7 0.01 0.02 0.01 75 1006.3
20260505191548 62 233 1.7 9.6 0.01 0.02 0.01 74 1006.4
20260505191047 62 221 3.5 11.3 0.01 0.02 0.01 74 1006.3
20260505190545 62 229 4.3 11.3 0.00 0.01 0.00 74 1006.4
20260505190046 62 245 5.2 12.2 0.00 0.01 0.00 73 1006.4
20260505185544 62 250 4.3 12.2 0.00 0.01 0.00 73 1006.4
20260505185044 63 232 3.5 13.9 0.00 0.01 0.00 73 1006.4
20260505184544 63 173 3.5 15.6 0.00 0.01 0.00 72 1006.4
20260505184044 63 226 7.8 18.2 0.00 0.01 0.00 72 1006.4
20260505183543 63 214 7.8 18.2 0.00 0.01 0.00 72 1006.5
20260505183054 63 190 5.2 16.5 0.00 0.01 0.00 71 1006.5
20260505182544 63 259 6.1 16.5 0.00 0.01 0.00 72 1006.5
20260505182042 63 208 5.2 16.5 0.00 0.01 0.00 71 1006.5
20260505181543 63 235 6.1 16.5 0.00 0.01 0.00 71 1006.5
20260505181044 63 323 2.6 15.6 0.00 0.01 0.00 71 1006.4
20260505180540 63 248 7.8 15.6 0.00 0.01 0.00 71 1006.4
20260505180043 64 245 3.5 12.2 0.00 0.01 0.00 71 1006.4
20260505175539 64 241 2.6 14.8 0.00 0.01 0.00 71 1006.3
20260505175038 64 216 7.8 15.6 0.00 0.01 0.00 71 1006.3
20260505174545 64 326 5.2 19.1 0.00 0.01 0.00 70 1006.3
20260505174041 64 264 5.2 20.0 0.00 0.01 0.00 70 1006.2
20260505173538 64 267 7.8 20.0 0.00 0.01 0.00 70 1006.2
20260505173037 64 281 3.5 21.7 0.00 0.01 0.00 69 1006.1
20260505172540 64 255 10.4 21.7 0.00 0.01 0.00 70 1006.2
20260505172036 64 196 7.8 18.2 0.00 0.01 0.00 69 1006.2
20260505171538 64 317 6.1 18.2 0.00 0.01 0.00 69 1006.1
20260505171035 64 211 6.1 23.5 0.00 0.01 0.00 68 1006.2
20260505170534 64 227 9.6 23.5 0.00 0.01 0.00 68 1006.2
20260505170034 64 243 6.1 20.9 0.00 0.01 0.00 68 1006.1
20260505165532 65 259 3.5 20.9 0.00 0.01 0.00 67 1006.2
20260505165032 65 253 5.2 15.6 0.00 0.01 0.00 67 1006.1
20260505164535 65 236 7.8 19.1 0.00 0.01 0.00 67 1006.1
20260505164032 65 156 11.3 23.5 0.00 0.01 0.00 66 1006.0
20260505163530 66 259 11.3 23.5 0.00 0.01 0.00 66 1006.1
20260505163032 66 257 12.2 23.5 0.00 0.01 0.00 66 1006.1
20260505162529 67 250 7.0 21.7 0.00 0.01 0.00 65 1006.1
20260505162028 67 245 10.4 21.7 0.00 0.01 0.00 65 1005.9
20260505161528 67 230 10.4 21.7 0.00 0.01 0.00 64 1005.9
20260505161027 68 254 9.6 21.7 0.00 0.01 0.00 64 1005.9
20260505160527 68 248 8.7 21.7 0.00 0.01 0.00 63 1005.8
20260505153023 68 154 10.4 24.3 0.00 0.01 0.00 63 1005.0
20260505152519 68 236 10.4 24.3 0.00 0.01 0.00 64 1004.8
20260505152020 68 227 12.2 22.6 0.00 0.01 0.00 63 1004.7
20260505151517 67 210 11.3 22.6 0.00 0.01 0.00 64 1004.8
20260505151016 67 213 10.4 25.2 0.00 0.01 0.00 67 1005.0
20260505150520 67 207 10.4 25.2 0.00 0.01 0.00 66 1005.0
20260505140504 65 207 15.6 28.7 0.00 0.01 0.00 69 1004.6
20260505124654 60 215 7.0 21.7 0.00 0.01 0.00 74 1005.0
20260505124054 60 230 11.3 21.7 0.00 0.01 0.00 73 1005.0
20260505123551 60 247 9.6 19.1 0.00 0.01 0.00 73 1004.8
20260505123054 60 199 9.6 18.2 0.00 0.01 0.00 73 1004.7
20260505122551 60 186 7.0 20.0 0.00 0.01 0.00 73 1004.6
20260505122049 60 225 10.4 20.0 0.00 0.01 0.00 73 1004.6
20260505121548 60 230 11.3 19.1 0.00 0.01 0.00 73 1004.4
20260505121047 60 193 7.8 17.4 0.00 0.01 0.00 73 1004.1
20260505120546 60 245 8.7 20.0 0.00 0.01 0.00 73 1004.1
20260505120050 60 203 9.6 20.0 0.00 0.01 0.00 73 1004.0
20260505115544 60 180 6.1 18.2 0.00 0.01 0.00 73 1003.8
20260505115043 60 184 10.4 18.2 0.00 0.01 0.00 73 1003.7
20260505114551 60 206 7.8 13.9 0.00 0.01 0.00 73 1003.7
20260505114042 60 112 4.3 13.0 0.00 0.01 0.00 73 1003.6
20260505113544 60 204 7.8 21.7 0.00 0.01 0.00 73 1003.7
20260505113039 60 247 9.6 21.7 0.00 0.01 0.00 72 1003.6
20260505112538 61 185 11.3 20.9 0.00 0.01 0.00 72 1003.6
20260505112037 61 215 10.4 20.9 0.00 0.01 0.00 71 1003.5
20260505111536 62 246 8.7 30.4 0.00 0.01 0.00 70 1003.6
20260505111037 62 214 15.6 30.4 0.00 0.01 0.00 68 1003.7
20260505110534 62 231 13.9 26.9 0.00 0.01 0.00 67 1003.6
20260505102025 63 218 7.0 22.6 0.00 0.01 0.00 68 1003.3
20260505101539 63 199 11.3 22.6 0.00 0.01 0.00 68 1003.3
20260505101024 63 201 9.6 23.5 0.00 0.01 0.00 67 1003.0
20260505100525 63 193 12.2 23.5 0.00 0.01 0.00 67 1003.0
20260505100023 64 229 8.7 21.7 0.00 0.01 0.00 67 1002.8
20260505095623 64 186 11.3 25.2 0.00 0.01 0.00 67 1002.9
20260505095021 64 221 11.3 27.8 0.00 0.01 0.00 66 1002.8
20260505094532 64 228 11.3 25.2 0.00 0.01 0.00 66 1002.6
20260505094020 64 227 13.9 25.2 0.00 0.01 0.00 66 1002.5
20260505093520 64 230 12.2 26.9 0.00 0.01 0.00 66 1002.5
20260505093020 64 194 14.8 26.9 0.00 0.01 0.00 65 1002.4
20260505092522 64 226 11.3 24.3 0.00 0.01 0.00 65 1002.3
20260505092018 64 228 13.0 22.6 0.00 0.01 0.00 65 1002.3